Simultaneous Nadir Overpasses (SNOs) Predictions

Prediction of SNOs between NOAA-15 and METOP-C Satellite Orbit:

Table of predicted SNOs for the next 14.0 days since TLE Epoch: 2/22/2020
Index Date (NOAA-15) Time (NOAA-15) Lat,Lon (NOAA-15) SZA (NOAA-15 ) Date (METOP-C) Time (METOP-C) Lat,Lon (METOP-C) SZA (METOP-C ) Distance(km) Time Diff (sec)
1 02/22/2020 22:54:55 80.89,-128.82 92.29 02/22/2020 22:53:42 80.89,-128.65 92.28 2.99 73
2 02/22/2020 23:45:24 -80.89, 38.61 87.73 02/22/2020 23:44:24 -80.89, 38.67 87.74 0.99 60
3 02/23/2020 00:35:58 80.90,-154.23 92.26 02/23/2020 00:35:04 80.88,-154.16 92.23 2.22 54
4 02/23/2020 01:26:27 -80.90, 13.20 87.76 02/23/2020 01:25:46 -80.88, 13.16 87.79 1.74 41
5 02/23/2020 02:17:00 80.89,-179.28 92.24 02/23/2020 02:16:25 80.89,-179.30 92.23 0.60 35
6 02/23/2020 03:07:29 -80.89, -11.86 87.78 02/23/2020 03:07:07 -80.89, -11.99 87.79 2.40 22
7 02/23/2020 03:58:03 80.90, 155.31 92.21 02/23/2020 03:57:47 80.88, 155.19 92.18 2.52 16
8 02/23/2020 04:48:32 -80.89, -37.27 87.81 02/23/2020 04:48:28 -80.90, -37.14 87.79 2.47 4
9 02/23/2020 05:39:06 80.90, 129.90 92.18 02/23/2020 05:39:08 80.89, 130.04 92.18 2.72 2
10 02/23/2020 06:29:35 -80.90, -62.69 87.84 02/23/2020 06:29:50 -80.89, -62.65 87.84 1.21 15
11 02/23/2020 07:20:08 80.89, 104.85 92.16 02/23/2020 07:20:29 80.90, 104.89 92.18 1.34 21
12 02/23/2020 08:10:37 -80.89, -87.74 87.86 02/23/2020 08:11:11 -80.90, -87.80 87.84 1.53 34
13 02/23/2020 09:01:11 80.90, 79.44 92.13 02/23/2020 09:01:51 80.89, 79.39 92.13 1.14 40
14 02/23/2020 09:51:40 -80.90,-113.16 87.89 02/23/2020 09:52:33 -80.89,-113.30 87.89 2.65 53
15 02/23/2020 10:42:13 80.89, 54.39 92.11 02/23/2020 10:43:12 80.90, 54.24 92.13 3.06 59
16 02/23/2020 11:32:43 -80.91,-138.57 87.92 02/23/2020 11:33:54 -80.90,-138.45 87.89 2.11 71




NCC Satellite Simultaneous Nadir Overpasses (SNOs) Prediction Service
